Flag for Germany Weather past 2 weeks in Lehrte, Lower Saxony, Germany

Now
55 °F

Fog.


Feels Like: N/A
Forecast: 55 / 67 °F
Wind: N/A

Location: Hannover

Current Time: Oct 2, 2014 at 12:33:31 AM

Latest Report: Oct 2, 2014 at 12:00 AM


Visibility: 2 mi

Pressure: 30.36 "Hg

Humidity: 98%

Dew point: 54 °F

Location of LehrteLocation

Historic Weather in Lehrte — Graph

°F

Lehrte temperature yesterday

Maximum temperature yesterday: 67 °F (at 4:00 PM)
Minimum temperature yesterday: 51 °F (at 6:00 AM)
Average temperature yesterday: 58 °F

Past Weeks' High & Low Weather Summary

 TemperatureHumidityPressure
High75 °F (Sep 18, 3:00 PM)100% (Sep 18, 7:00 AM)30.40 "Hg (Sep 18, 7:00 AM)
Low42 °F (Sep 23, 7:00 AM)49% (Sep 17, 6:00 PM)29.81 "Hg (Sep 24, 7:00 PM)
Average60 °F84%30.08 "Hg
* Reported Sep 16 10:00 PM — Oct 1 10:00 PM, Lehrte, Weather by CustomWeather, © 2014

Note: Actual official high and low records may vary slightly from our data, if they occured in-between our weather recording intervals... More about our weather records

Advertising

Lehrte weather history for previous 24 hours

 ConditionsComfort  
Time TempWeatherWind HumidityBarometerVisibility
10:00 PM
Oct 1
58 °FFog.1 mph93%30.35 "Hg5 mi
9:00 PM58 °FFog.1 mph95%30.34 "Hg6 mi
8:00 PM60 °FPassing clouds.1 mph90%30.32 "Hg6 mi
7:00 PM62 °FPassing clouds.No wind83%30.31 "Hg6 mi
6:00 PM67 °FPassing clouds.2 mph69%30.30 "Hg6 mi
4:00 PM67 °FScattered clouds.3 mph68%30.30 "Hg6 mi
3:00 PM66 °FPartly sunny.2 mph71%30.32 "Hg5 mi
2:00 PM65 °FOvercast.3 mph74%30.33 "Hg4 mi
1:00 PM65 °FOvercast.2 mph78%30.33 "Hg4 mi
12:00 PM63 °FFog.2 mph78%30.33 "Hg2 mi
11:00 AM61 °FFog.2 mph86%30.33 "Hg2 mi
10:00 AM59 °FFog.1 mph90%30.32 "Hg2 mi
9:00 AM54 °FFog.2 mph96%30.31 "Hg2 mi
8:00 AM51 °FFog.1 mph99%30.31 "Hg2 mi
7:00 AM51 °FFog.1 mph98%30.30 "Hg1 mi
6:00 AM51 °FFog.1 mph97%30.31 "Hg1 mi
4:00 AM53 °FFog.1 mph99%30.31 "Hg0 mi
3:00 AM51 °FFog.1 mph98%30.30 "Hg0 mi
2:00 AM52 °FFog.N/A97%30.30 "Hg1 mi
1:00 AM53 °FFog.1 mph97%30.29 "Hg1 mi
12:00 AM54 °FFog.1 mph98%30.29 "Hg0 mi
Weather by CustomWeather, © 2014

See weather overviewHow to use our weather pages